Regional Weather Roundup
Issued by NWS Sioux Falls, SD

Home | Current Version | Previous Version | Graphics & Text | Print | Product List | Glossary On
Versions: 1 2 3 4 5 6 7 8 9 10 11 12 13 14 15 16 17 18 19 20 21 22 23 24 25 26 27 28 29 30 31 32 33 34 35 36 37 38 39 40 41 42 43 44 45 46 47 48 49 50
000
ASUS43 KFSD 041510
RWRFSD

WEATHER ROUNDUP FOR SE SOUTH DAKOTA/SW MINNESOTA/NW IOWA
NATIONAL WEATHER SERVICE SIOUX FALLS SD
900 AM CST SUN DEC 04 2016

NOTE: "FAIR" INDICATES FEW OR NO CLOUDS BELOW 12,000 FEET WITH NO
SIGNIFICANT WEATHER AND OR OBSTRUCTIONS TO VISIBILITY.


SDZ038>040-050-052>070-041600-
SOUTHEAST SOUTH DAKOTA

CITY           SKY/WX    TMP DP  RH WIND       PRES   REMARKS
BROOKINGS      CLOUDY    30  29  96 SW6       29.83S WCI  24
CHAMBERLAIN    PTCLDY    33  28  80 W8        29.88F WCI  26
HURON          CLEAR     30  26  85 W9        29.86S WCI  22
MADISON        FAIR      30  30 100 W12G22    29.84S WCI  21
MITCHELL       CLEAR     32  26  78 W8        29.89S WCI  25
SIOUX FALLS    MOSUNNY   32  30  92 SW6       29.87  WCI  26
WINNER         FAIR      35  25  66 W6        29.89F
YANKTON        SUNNY     34  28  80 W8        29.90F WCI  27
$$

MNZ071-072-080-081-089-090-097-098-041600-
SOUTHWEST MINNESOTA

CITY           SKY/WX    TMP DP  RH WIND       PRES   REMARKS
FAIRMONT       CLOUDY    34  32  92 SW10      29.90F WCI  26
JACKSON        CLOUDY    32  30  93 SW10G16   29.88F WCI  24
LUVERNE        CLOUDY    32  30  93 SW10      29.87F FOG     WCI  24
MARSHALL       CLEAR     34  30  85 SW22      29.83F WCI  22
MONTEVIDEO     MOCLDY    36  36 100 SW9       29.84S
PIPESTONE      MOCLDY    32  30  93 SW13      29.84S FOG     WCI  22
REDWOOD FALLS  PTSUNNY   34  31  88 S13       29.85F WCI  25
TRACY          SUNNY     34  32  90 SW17      29.83F WCI  24
WINDOM         CLOUDY    34  30  86 SW14G20   29.86F WCI  24
WORTHINGTON    CLOUDY    33  31  92 SW15      29.86F WCI  23
$$

IAZ001>003-012>014-020>022-031-032-NEZ013-014-SDZ071-041600-
NORTHWEST IOWA

CITY           SKY/WX    TMP DP  RH WIND       PRES   REMARKS
CHEROKEE       CLOUDY    33  33 100 SW9       29.92S FOG     WCI  26
DENISON        CLOUDY    34  32  93 SW7       29.93S WCI  28
ESTHERVILLE    CLOUDY    33  32  96 SW13      29.89S WCI  24
LE MARS        MOSUNNY   32  32 100 S8        29.93S FOG     WCI  25
ORANGE CITY    CLOUDY    32  32 100 SW10      29.90S FOG     WCI  24
SHELDON        CLOUDY    34  34 100 SW12G17   29.88F WCI  25
SIOUX CITY     SUNNY     33  31  92 S5        29.94S WCI  29
SPENCER        CLOUDY    33  31  92 SW12G20   29.91S WCI  24
STORM LAKE     CLOUDY    32  30  93 W12       29.91F WCI  23
$$

ABBREVIATIONS USED IN REMARKS
   TC - TEMPERATURE IN CELSIUS
  WCI - WIND CHILL INDEX
   HX - HEAT INDEX
  VSB - VISIBILITY




USA.gov is the U.S. government's official web portal to all federal, state and local government web resources and services.